Wind_Speed
52 51 50 49 46 43 41 38 35 35 34 33 33 33 32 31 29 28 28 29 30 31 32 33 34 34 32 29 28 27 29 31 33 34 35 36 38 40 41 41 40 40 39 37 37 38 38 38 38 36 33 32 32 33 32 30 27 25 26 28 30 31 32 32 33 33 33 35 36 34 34 37 39 38 35 32 30 30 29 28 27 26 25 24 24
49 42 42 44 38 32 31 31 30 31 32 31 31 30 28 26 26 27 28 29 30 31 33 34 33 31 28 27 27 29 31 32 34 36 37 37 38 38 39 40 40 39 39 37 38 38 38 38 38 37 34 32 33 34 33 31 28 26 27 29 30 31 32 32 32 33 33 34 37 37 35 35 38 37 36 34 32 31 30 30 29 28 27 26 25
48 42 43 43 35 26 22 24 28 28 28 27 25 23 23 23 24 26 26 27 28 30 32 31 29 27 26 27 29 31 32 34 36 36 36 37 37 36 37 38 37 37 38 37 38 38 38 38 39 38 35 33 34 34 33 31 28 26 28 30 30 31 32 33 33 33 34 34 36 39 38 35 35 36 36 34 32 31 31 30 31 30 29 28 28
46 43 41 38 34 28 21 20 25 25 24 22 20 19 21 23 25 27 27 28 28 28 28 27 27 27 28 29 31 33 35 37 36 35 34 35 36 35 34 34 33 35 37 37 38 38 38 38 38 37 34 34 34 34 33 30 27 26 28 30 29 30 31 33 33 34 35 36 37 40 40 38 36 36 35 33 31 31 31 31 31 31 31 30 30
39 36 33 31 29 25 24 23 24 25 22 19 20 20 20 22 25 27 28 28 27 25 26 27 28 29 30 32 33 35 37 37 35 33 32 33 34 33 31 29 28 32 36 37 37 38 37 37 36 35 34 34 34 33 31 29 28 27 28 28 27 27 29 31 33 34 36 38 39 40 42 41 38 35 33 31 30 31 31 30 31 31 31 30 31
34 32 28 26 23 21 24 26 25 25 21 20 21 19 19 21 23 24 26 27 26 26 27 28 29 32 34 34 34 35 36 36 33 30 29 29 31 30 28 27 27 31 34 34 35 36 36 35 34 32 33 33 33 32 30 29 28 29 29 28 26 25 27 29 32 33 34 36 39 41 42 42 40 37 34 33 31 31 30 30 30 29 29 30 31
29 28 24 20 20 19 21 23 23 23 22 21 20 18 18 21 23 24 27 27 26 27 29 31 34 36 36 34 33 35 35 33 30 27 26 25 26 26 26 26 28 30 30 28 30 33 34 32 31 31 32 33 32 31 29 29 30 30 30 29 27 26 26 28 30 32 32 34 37 41 43 42 41 40 38 36 33 32 33 32 30 29 29 29 31
24 23 21 20 22 23 21 22 23 23 23 21 19 16 18 23 25 26 28 28 28 31 33 36 38 37 35 33 33 33 32 29 27 25 24 23 23 24 24 25 26 28 28 26 26 30 32 31 30 29 29 31 31 30 30 30 31 31 30 30 29 28 28 29 30 32 32 33 35 38 41 42 42 43 42 40 38 38 37 34 32 31 30 30 31
21 22 21 22 24 24 25 27 28 26 24 21 18 17 20 24 27 29 30 29 30 32 35 38 38 36 34 33 33 31 28 26 23 21 20 20 21 21 24 25 25 27 27 26 28 30 30 31 32 30 28 28 29 31 32 32 32 32 32 32 32 30 29 30 31 32 33 34 35 37 40 42 44 44 44 43 42 42 39 35 34 33 32 32 32
23 23 23 23 24 25 27 29 30 30 27 24 20 19 23 26 29 32 32 31 32 34 36 37 36 35 34 33 32 29 26 24 22 19 17 19 19 19 23 25 26 27 26 27 29 29 29 30 32 33 31 30 30 31 32 34 35 35 35 34 34 32 31 32 33 33 33 34 36 37 39 41 44 45 46 45 43 41 38 35 35 35 34 33 32
25 26 26 25 25 27 28 28 29 30 30 28 25 24 27 30 32 33 34 35 36 36 35 34 34 35 35 34 32 29 26 24 22 20 17 18 19 21 24 26 26 27 28 29 27 26 27 29 30 31 31 34 36 35 35 36 37 38 37 36 35 35 34 34 34 34 35 36 37 39 40 41 44 45 46 45 42 40 38 35 33 34 35 35 34
29 30 29 28 28 29 30 31 31 31 31 31 31 30 32 34 36 36 36 36 34 33 32 32 34 35 35 34 31 29 27 25 23 22 20 19 21 23 27 28 27 25 26 27 28 28 28 30 31 29 29 33 35 36 37 37 39 39 38 37 38 38 36 35 35 34 36 37 39 40 41 43 44 45 46 45 42 41 40 36 32 32 35 35 35
31 33 33 32 33 35 36 37 37 37 36 36 36 37 37 37 37 35 33 31 30 30 31 32 34 34 34 33 31 29 28 27 26 24 23 22 22 24 27 30 29 26 25 26 30 32 31 31 32 32 32 32 31 32 33 34 36 38 39 39 39 40 39 37 35 35 36 38 39 41 42 43 44 45 44 43 42 41 40 36 31 31 33 35 36
29 33 36 36 37 39 40 40 40 40 40 39 38 36 34 32 30 28 26 26 28 29 30 31 33 32 32 31 30 29 27 27 26 25 25 24 24 25 27 29 30 28 28 29 31 33 34 35 36 35 36 35 34 34 33 33 34 36 38 39 38 38 39 38 36 35 35 37 39 41 42 43 43 43 43 43 41 41 40 35 30 34 38 39 39
24 28 33 37 39 40 39 38 37 36 34 33 31 30 28 26 25 25 25 25 27 29 29 29 30 29 30 30 30 28 27 25 26 28 29 28 26 26 28 30 31 30 29 30 32 33 35 37 37 38 38 37 38 38 37 37 36 35 35 36 37 37 38 38 37 35 34 36 39 41 42 42 42 43 43 42 41 41 41 38 36 40 43 42 41
21 23 26 29 32 33 32 31 30 29 28 29 29 29 29 27 26 26 26 26 27 28 29 28 28 27 27 28 28 28 27 24 26 30 32 31 28 27 28 31 34 34 32 31 31 32 34 35 37 38 39 39 40 39 37 37 37 37 37 37 37 37 38 38 37 36 34 34 37 41 43 43 43 43 42 42 43 43 43 43 44 46 44 42 41
23 23 23 25 26 27 28 29 29 30 31 31 31 31 31 30 28 27 28 29 29 30 30 30 29 28 27 27 27 28 28 26 28 30 31 31 29 27 29 33 36 37 36 35 33 33 33 35 37 38 40 41 41 40 39 37 37 39 40 40 39 39 39 39 39 39 37 35 35 39 42 43 44 44 42 42 43 44 45 46 47 47 44 41 40
28 28 28 29 29 31 32 33 34 34 34 33 33 32 32 31 28 27 28 30 30 30 31 31 31 30 29 29 29 27 26 26 29 32 32 32 32 31 30 33 37 39 38 37 36 35 34 36 38 38 39 39 39 40 40 39 40 42 40 38 38 39 39 38 39 40 41 39 37 38 41 43 44 44 43 43 43 44 45 46 47 46 44 41 40
30 31 32 32 33 34 35 36 36 36 36 35 34 32 31 30 28 27 27 29 30 31 31 31 31 30 29 29 29 28 28 28 31 34 31 30 34 35 33 34 37 40 40 37 36 35 33 33 34 35 36 36 37 38 37 37 39 42 43 40 38 38 36 35 36 38 40 41 40 39 40 42 43 42 44 45 45 44 44 45 44 44 43 41 40
31 31 32 32 33 34 34 35 36 36 35 34 33 32 30 29 27 27 27 28 29 30 31 31 30 30 29 29 28 28 29 29 31 32 29 29 34 35 35 36 37 39 41 39 37 36 34 32 31 32 33 32 34 36 35 35 36 38 41 43 42 39 37 35 35 35 37 39 41 40 40 42 43 43 45 46 46 44 43 44 43 42 41 41 41
31 31 31 30 30 31 31 32 33 33 32 32 31 30 29 27 27 27 28 29 29 30 30 31 31 30 29 29 28 28 28 28 28 28 29 33 36 35 36 37 37 38 40 41 40 38 38 37 35 34 33 30 30 34 36 37 39 41 42 44 44 42 41 39 38 36 35 37 40 41 41 42 45 47 47 45 44 43 43 44 44 42 41 41 42
30 29 29 28 28 28 29 29 29 30 30 30 30 29 28 27 28 29 30 30 30 30 30 31 31 30 29 28 28 28 28 28 27 27 29 32 34 34 34 34 35 36 37 40 41 40 39 39 40 39 37 35 35 36 38 39 40 42 42 44 44 43 42 42 43 41 38 38 39 40 41 42 45 47 47 46 43 41 43 45 45 44 43 42 43
29 28 27 26 26 26 26 26 26 27 27 27 27 27 28 29 30 31 31 31 31 30 30 30 30 29 28 27 27 27 28 28 27 27 28 29 29 29 29 30 31 32 34 37 41 42 42 41 42 42 42 42 42 42 43 42 42 42 42 42 42 42 41 41 43 43 41 39 39 40 40 42 43 44 46 46 43 40 43 46 47 47 45 45 44
29 27 27 26 25 25 24 24 24 25 25 26 26 27 28 31 32 33 33 33 32 31 30 30 30 28 27 26 26 26 27 27 27 28 28 28 27 27 27 27 27 28 30 34 38 42 45 45 44 44 45 46 46 46 46 46 46 45 45 44 43 42 40 40 40 42 41 40 40 40 40 41 42 42 44 45 43 41 43 46 48 47 47 47 47
29 27 27 27 27 26 25 25 25 25 25 25 25 26 27 30 33 35 35 35 35 33 31 30 30 29 27 26 25 24 24 24 25 27 27 28 27 27 27 27 26 26 28 31 34 38 43 47 48 46 46 47 47 47 47 47 46 46 46 46 45 43 42 40 40 41 42 41 40 40 41 42 42 43 43 44 44 43 44 46 48 48 48 49 49
31 29 28 28 28 28 28 29 29 29 28 28 27 26 27 27 29 31 34 35 36 35 34 32 32 32 30 27 25 24 22 22 23 24 25 26 27 28 28 28 28 27 28 29 32 35 39 45 49 50 49 48 48 48 48 48 47 47 47 47 46 45 44 43 42 42 42 41 40 41 42 43 44 44 45 45 45 45 45 46 48 48 49 51 50
33 32 31 31 31 31 31 31 32 32 32 32 31 31 31 31 30 30 31 32 34 35 34 34 34 34 33 31 28 27 25 25 24 24 24 25 27 28 29 30 30 30 30 29 31 33 36 40 45 50 52 53 51 49 49 49 49 48 49 49 50 48 46 45 44 42 42 41 41 42 42 44 47 47 47 47 46 46 47 48 49 49 51 53 52
35 34 34 34 34 34 34 35 36 36 36 36 35 35 35 36 36 35 34 33 33 33 33 34 35 36 36 36 34 33 32 31 30 29 28 28 28 29 31 32 33 33 33 32 32 32 34 36 39 43 48 52 54 54 53 52 51 50 49 50 50 49 48 47 44 42 41 42 42 43 43 45 48 50 50 49 48 47 48 49 49 50 51 53 53
37 37 37 37 37 38 39 39 39 39 39 39 39 39 39 38 38 38 37 36 35 34 35 35 36 37 39 40 40 39 38 37 37 36 35 34 33 32 32 33 34 35 35 35 35 34 33 34 36 38 41 44 48 52 53 53 53 52 51 51 51 51 49 48 45 43 43 42 43 44 45 45 47 52 53 53 52 51 50 50 50 50 51 52 53
41 42 42 42 43 43 44 44 43 42 41 42 42 42 41 40 40 39 39 39 38 37 37 37 38 39 41 43 44 43 43 42 42 41 40 39 38 36 35 35 35 36 37 38 38 37 36 35 35 36 37 39 42 46 49 51 50 49 49 50 51 51 51 49 47 45 45 44 44 44 45 46 47 50 54 56 56 55 54 53 53 53 53 53 53
46 45 45 45 46 47 47 46 45 45 45 44 44 44 43 42 41 41 41 41 41 41 40 40 40 41 42 44 45 45 44 44 44 43 43 42 41 40 38 38 38 38 38 39 40 40 39 39 38 37 37 38 39 42 46 49 49 48 47 46 47 48 48 48 46 45 46 47 46 46 46 46 47 48 52 55 57 58 58 58 57 56 56 56 55
46 46 46 47 48 49 49 48 48 47 47 47 46 45 45 45 44 44 44 44 44 44 44 43 43 43 43 43 44 44 43 43 43 43 44 44 43 43 41 41 41 41 41 41 41 42 42 42 41 40 40 39 39 40 43 46 49 50 49 48 47 46 46 46 45 45 46 47 49 48 47 47 47 47 49 52 55 58 60 61 62 61 60 59 58
48 48 49 50 51 52 51 50 50 50 50 50 50 49 49 48 48 48 47 47 47 46 46 45 44 44 44 44 44 44 43 43 43 44 45 46 46 45 45 44 43 43 43 44 43 43 43 44 44 44 43 42 42 41 42 43 46 49 51 51 50 49 48 48 47 47 46 47 48 50 50 49 49 48 48 50 52 55 57 60 62 64 64 63 62
51 52 52 53 53 53 53 52 52 53 53 54 54 53 52 51 50 49 49 49 49 49 48 47 47 46 46 46 46 46 46 46 47 47 48 48 48 48 48 46 45 44 44 46 46 45 44 44 45 46 46 45 44 44 43 43 44 46 49 52 53 53 52 51 50 50 49 48 49 50 50 51 51 50 50 50 51 52 54 56 59 61 63 64 65
54 54 54 54 55 55 55 54 54 54 55 55 55 54 52 51 51 50 50 51 51 51 51 50 50 50 49 49 49 50 50 51 51 50 50 50 50 50 49 48 47 46 46 47 48 48 47 46 46 46 47 48 48 47 46 46 45 45 46 48 51 54 55 55 54 53 52 52 51 51 51 51 51 52 52 52 52 52 53 55 57 58 60 62 63
57 56 56 56 56 57 57 56 56 55 55 55 54 54 53 53 53 53 53 54 53 53 53 53 53 52 52 52 52 52 53 52 51 50 49 49 50 51 51 50 48 47 47 48 49 49 49 48 48 47 48 48 49 49 49 49 48 47 47 47 48 50 53 56 57 57 57 56 55 54 54 53 53 53 53 54 54 54 54 55 56 58 59 60 62
60 60 59 58 58 58 58 58 57 57 56 56 55 54 53 53 54 54 55 55 55 54 54 53 52 52 51 51 52 52 51 50 49 48 48 48 50 51 51 50 48 47 46 47 49 50 50 50 50 49 49 49 50 50 51 51 51 50 50 49 49 49 51 53 55 58 59 59 59 58 57 57 57 56 56 56 56 56 57 57 58 58 59 60 61
63 62 62 60 59 59 59 59 59 58 57 57 55 54 53 53 53 54 54 54 54 54 53 52 51 50 50 49 49 49 49 48 46 45 45 46 48 50 49 47 45 44 43 44 46 47 48 48 49 50 51 51 51 51 51 52 53 53 53 53 52 52 52 52 53 55 57 59 60 61 61 60 60 60 60 60 60 60 60 60 60 61 61 61 62
65 65 64 62 61 60 60 59 59 58 57 57 56 54 53 53 53 53 52 52 53 53 53 52 51 51 50 49 49 48 46 45 43 41 41 41 43 44 43 40 39 38 39 41 43 45 46 47 49 50 52 53 54 54 54 53 53 54 55 56 55 56 55 55 55 55 56 57 59 61 62 63 63 63 63 63 64 64 64 64 64 64 64 64 64
65 65 64 63 63 62 62 60 59 59 58 57 57 55 54 54 53 53 52 51 51 51 51 51 51 50 49 48 47 45 43 41 39 37 36 34 34 35 35 34 35 36 38 40 42 44 47 48 50 51 53 55 56 57 57 56 55 56 57 57 58 59 59 58 58 58 58 58 59 60 61 63 64 65 65 66 66 67 67 67 68 68 67 67 67
64 65 65 65 64 63 63 62 60 59 58 58 58 57 56 56 55 54 52 50 49 49 49 49 49 48 48 47 47 45 42 40 38 36 36 34 32 34 35 37 38 39 42 43 44 45 47 48 50 52 53 54 56 57 58 58 59 59 59 59 59 60 61 61 61 61 61 61 61 61 62 63 64 65 66 67 68 69 69 69 70 71 71 71 71
65 65 66 65 65 64 64 63 62 60 59 58 58 58 58 58 57 56 55 53 51 51 50 50 49 49 49 49 49 47 44 42 40 39 39 40 41 42 44 45 45 46 47 47 47 46 47 48 49 51 52 53 55 57 57 57 59 60 61 61 61 62 62 63 63 63 64 64 64 63 64 64 65 66 67 68 69 70 71 71 72 73 73 74 74
66 66 65 64 63 63 63 62 61 60 59 58 59 59 59 59 58 58 57 55 54 53 53 53 52 52 52 51 52 51 49 46 44 43 43 45 47 49 50 51 51 51 52 51 49 49 48 48 49 51 52 54 55 56 56 56 57 58 60 62 63 64 64 64 65 64 65 66 66 66 66 67 67 68 68 69 70 72 72 73 73 74 75 75 76
65 63 62 61 60 59 60 60 59 57 56 56 58 59 59 59 59 58 57 56 56 57 57 57 56 56 55 54 54 54 53 52 49 48 47 48 50 51 52 53 53 54 54 53 51 50 50 50 51 52 53 54 55 55 55 55 55 56 58 60 61 63 65 66 67 66 66 67 68 68 68 69 69 70 71 72 72 73 74 74 75 75 76 77 77
61 58 54 52 52 55 57 59 60 58 55 55 57 59 60 61 61 60 60 59 59 60 61 61 60 59 58 57 56 55 55 55 54 53 52 51 52 52 53 54 54 54 54 54 53 52 53 53 54 54 55 56 55 55 55 54 54 55 56 58 59 60 62 65 66 67 68 69 70 70 71 71 71 71 73 75 75 76 77 77 77 78 78 78 79
67 64 62 60 60 60 61 62 63 62 60 61 63 65 64 63 63 63 63 63 62 62 62 62 62 62 62 61 59 58 56 56 56 57 57 56 56 56 56 56 56 56 56 56 57 57 58 58 58 57 57 57 56 55 55 55 55 55 55 56 57 58 60 62 64 66 67 69 70 72 73 74 75 74 75 77 77 78 79 80 80 80 80 80 81
72 69 68 68 68 68 68 68 66 63 62 64 65 66 67 66 65 65 66 66 65 65 64 64 64 64 64 64 63 61 59 58 58 59 60 60 60 60 60 61 61 60 61 61 61 61 61 61 61 60 59 59 58 56 56 56 56 57 56 56 56 57 58 59 61 63 65 66 68 70 72 74 76 76 77 79 80 81 82 83 83 83 83 83 84
73 72 70 69 70 70 71 72 70 66 65 65 65 66 67 68 68 69 70 70 70 69 68 67 67 66 66 65 65 64 63 62 62 62 63 63 63 63 64 64 64 64 64 64 64 64 63 63 62 62 61 60 59 58 58 58 58 58 58 58 57 57 57 59 60 62 64 65 66 68 70 72 74 75 76 78 80 82 83 85 86 85 86 86 87
73 72 71 70 70 71 72 75 75 74 73 73 73 73 74 74 74 75 75 74 73 73 72 71 70 69 69 68 67 67 66 66 66 66 67 67 67 67 67 67 67 66 66 66 66 66 65 64 63 62 61 60 60 60 60 60 60 59 59 59 59 59 59 59 61 62 64 65 66 67 68 70 73 74 75 76 78 80 82 85 87 87 88 88 89
70 70 70 70 70 71 73 75 77 78 78 78 78 78 78 77 77 76 75 74 73 73 73 72 72 71 71 70 70 70 70 70 69 69 69 70 69 69 69 68 68 67 67 67 66 65 65 64 62 62 61 61 61 61 61 62 62 61 61 61 60 60 60 61 62 63 64 66 66 67 68 71 73 74 75 76 77 79 81 84 86 88 89 90 91
67 67 67 68 68 69 71 73 75 76 77 77 77 76 76 75 74 73 72 72 72 71 71 71 71 71 71 71 71 71 71 71 71 71 70 70 70 70 69 69 67 66 65 64 63 62 62 61 61 61 61 61 62 62 62 62 63 63 63 62 62 61 61 62 63 63 64 66 68 68 69 72 74 76 77 78 79 80 82 84 85 87 89 90 91
Wind_Direction
284 289 289 285 283 285 286 286 284 280 276 271 267 267 267 265 263 260 258 258 260 262 264 268 271 271 270 268 270 272 274 275 274 271 267 264 263 262 261 260 260 259 255 250 246 244 246 248 251 253 253 254 255 254 251 251 253 257 259 258 255 251 246 244 244 244 242 240 239 240 243 245 245 244 242 243 247 250 251 253 250 245 243 240 238
284 283 282 281 281 284 287 285 280 275 272 269 267 267 265 258 256 256 256 257 258 261 264 266 267 267 267 269 274 278 279 279 276 272 266 262 261 261 260 258 258 258 254 248 244 243 244 246 249 252 251 251 254 254 251 251 255 258 259 257 254 252 247 244 244 244 243 239 236 235 238 243 246 245 243 244 247 249 251 253 251 248 244 239 235
281 276 272 273 272 268 275 282 278 275 271 268 268 267 262 256 257 259 259 260 260 260 261 261 262 266 272 278 281 282 282 283 281 274 266 262 260 258 257 256 255 255 252 247 243 242 242 245 247 250 250 249 252 252 250 252 256 259 259 256 253 251 248 246 243 243 244 242 238 235 235 239 243 244 243 244 247 250 252 253 253 251 247 241 234
279 274 268 268 266 257 258 271 275 274 268 263 263 262 262 262 261 261 261 262 261 259 259 260 265 273 280 284 284 283 286 287 282 274 268 265 260 255 254 253 253 253 250 245 243 242 242 244 246 249 249 249 251 250 249 253 258 260 259 256 254 251 249 247 244 241 242 243 241 237 236 236 239 240 241 245 250 253 254 253 254 254 251 246 239
279 273 269 268 264 254 247 250 260 265 260 253 252 254 259 262 261 259 257 258 258 258 261 265 271 276 280 285 286 286 288 287 281 273 270 267 260 253 248 246 249 250 247 244 242 241 241 242 244 248 248 249 249 247 249 255 259 259 257 255 255 253 250 248 246 243 240 240 240 239 237 237 237 237 239 245 251 254 254 253 255 256 254 250 245
278 274 273 269 262 251 241 240 249 257 253 245 244 247 253 256 257 257 255 253 256 260 264 268 272 277 282 287 289 289 288 284 278 272 271 269 260 250 242 236 239 244 245 243 241 239 239 240 244 247 248 248 247 247 250 256 258 256 253 253 255 256 255 251 247 246 243 240 239 239 239 240 239 234 235 241 246 251 252 251 252 255 254 251 249
276 274 271 262 249 242 233 228 238 246 243 238 238 242 249 253 255 256 256 255 258 263 268 271 276 282 287 289 288 288 286 280 275 273 274 273 262 250 241 234 234 239 240 240 239 237 236 239 244 247 247 246 245 247 251 256 257 254 250 251 254 258 260 257 250 246 243 239 238 240 241 241 240 235 234 237 241 246 248 247 248 251 253 252 249
270 265 257 244 235 235 226 219 226 233 233 232 233 237 244 251 252 252 256 259 264 270 274 277 282 286 288 287 286 286 282 277 275 275 275 274 266 255 246 239 234 234 232 233 235 235 236 239 242 244 245 246 246 248 254 256 255 251 249 250 253 258 262 261 255 247 242 239 238 240 241 241 239 237 237 238 239 241 242 242 244 247 251 252 250
256 252 239 230 229 228 221 218 222 225 228 227 224 232 244 250 251 251 257 264 270 274 278 282 285 287 285 283 283 282 279 276 276 277 274 273 272 265 258 246 235 230 226 230 235 234 238 241 242 242 241 244 248 251 253 252 249 248 249 250 252 258 263 265 260 251 243 239 239 241 242 241 239 239 241 243 245 243 242 243 244 246 250 252 252
243 240 230 222 219 217 217 220 223 226 227 224 221 231 240 245 251 255 260 266 272 277 280 283 283 283 281 281 279 278 278 275 275 276 272 271 267 259 261 255 241 229 222 229 234 233 240 245 246 244 243 245 247 249 248 247 248 249 249 251 254 259 264 266 262 255 246 240 240 243 244 243 242 241 242 246 249 247 245 245 246 247 249 252 253
234 232 230 227 220 217 220 224 228 230 231 231 233 239 243 248 255 261 265 269 274 276 278 279 278 278 278 279 279 278 278 278 278 276 272 269 260 243 244 253 248 232 224 226 229 231 238 245 249 247 246 246 245 244 245 247 250 251 251 253 256 259 263 265 262 256 249 241 239 242 245 246 245 244 244 247 249 247 244 243 247 250 249 250 253
233 229 229 233 235 234 235 235 238 240 241 244 246 248 253 258 263 267 270 272 274 274 274 275 275 275 275 278 280 279 279 281 280 276 269 264 262 248 237 243 248 237 228 226 225 227 231 238 244 242 240 243 244 245 247 250 252 253 252 254 257 259 262 263 261 256 250 243 240 240 244 247 247 247 247 248 248 245 242 240 246 251 248 248 252
237 231 229 233 238 241 243 244 245 248 251 254 256 257 259 263 266 269 271 272 273 274 274 275 275 275 276 278 280 279 279 281 279 275 269 260 259 256 243 240 244 239 232 229 225 225 225 229 235 234 234 239 243 246 249 252 254 253 252 253 255 260 263 261 259 257 251 244 240 239 241 245 248 249 250 250 248 246 243 240 244 248 245 244 247
243 237 234 235 239 243 247 249 251 253 256 259 261 262 263 265 269 270 272 274 275 275 275 274 275 276 276 276 276 277 278 280 277 272 269 263 257 257 249 241 241 240 235 233 231 228 226 229 233 233 234 238 241 245 248 251 253 253 253 253 254 257 260 258 256 256 253 246 241 239 240 243 246 249 251 251 248 246 242 239 242 243 240 241 244
251 243 239 240 244 248 252 254 255 256 258 262 265 268 270 273 274 273 274 274 273 273 273 273 274 274 274 274 273 273 272 274 276 273 270 266 260 256 249 240 237 237 235 234 234 233 231 233 235 235 236 238 241 243 245 245 247 249 250 253 253 252 252 252 252 252 251 247 242 239 239 241 244 247 250 251 247 245 242 237 237 239 241 242 244
261 254 248 246 248 252 255 257 258 260 263 268 272 274 276 277 275 272 272 271 271 271 271 271 270 270 271 272 269 264 258 257 266 271 269 266 261 254 246 238 233 232 231 231 233 234 233 234 236 237 237 237 239 240 241 241 244 245 246 249 251 250 248 247 248 247 247 246 243 240 238 239 243 245 248 249 246 245 243 240 239 242 243 244 245
272 268 263 260 258 259 261 262 264 266 268 271 273 274 276 276 273 270 270 271 271 271 271 271 269 266 265 263 260 257 252 249 252 257 261 265 263 254 244 236 233 232 231 232 234 234 233 233 234 234 235 235 234 235 237 240 243 245 246 249 251 250 248 247 247 247 246 246 246 243 240 238 241 244 246 249 247 245 244 244 246 248 248 246 245
269 267 265 264 263 263 264 265 267 268 270 272 272 273 274 274 270 268 268 269 271 272 271 271 269 266 262 259 258 255 251 247 247 249 255 262 263 257 248 238 235 235 236 236 237 236 236 237 237 236 236 235 234 234 236 241 245 247 246 246 248 248 246 246 247 248 247 246 246 245 241 238 239 243 246 248 248 246 244 245 247 250 251 248 245
268 266 265 264 264 265 267 268 269 270 271 272 272 273 272 270 267 265 265 267 269 271 271 269 268 265 261 259 257 253 248 246 248 251 254 257 257 255 251 245 239 237 238 239 238 237 237 239 241 241 241 240 237 235 236 241 246 248 246 242 242 242 242 243 245 246 246 246 245 243 241 238 237 243 247 248 248 247 246 246 248 250 252 249 245
273 271 269 268 268 268 269 270 271 271 271 270 270 270 269 266 263 262 263 265 266 268 269 269 267 265 261 258 255 252 248 245 248 250 248 249 253 252 251 251 246 241 239 238 238 237 235 234 234 235 237 239 239 236 235 236 237 241 243 241 240 240 242 245 246 246 246 246 245 243 239 235 235 240 245 247 249 249 249 248 248 250 250 248 245
275 273 271 271 271 271 271 271 271 271 270 269 268 267 266 263 260 260 261 263 265 266 268 268 268 266 262 258 254 251 248 245 245 244 241 246 253 256 255 255 252 247 242 239 239 238 236 234 233 231 230 229 230 230 230 231 230 234 239 241 242 243 244 245 247 248 248 245 244 242 238 233 232 237 242 246 249 251 251 250 248 247 247 246 245
279 277 275 274 274 274 273 273 272 272 270 269 267 266 264 261 259 258 259 261 264 266 267 269 269 267 263 260 255 252 249 247 245 242 240 244 251 255 257 256 254 251 247 242 239 238 238 238 236 233 229 227 226 227 228 229 230 233 238 241 243 244 243 243 245 249 249 245 242 241 238 233 232 237 241 243 246 249 251 250 247 244 243 244 246
283 282 281 279 278 276 275 275 274 272 270 268 266 265 263 262 260 260 260 262 265 267 268 269 269 267 264 261 258 255 252 250 249 246 244 246 250 253 255 256 254 251 248 243 240 238 238 239 239 237 235 233 233 234 233 233 233 235 237 240 243 244 244 243 244 246 247 244 241 239 237 234 232 235 240 241 242 245 248 249 248 244 241 241 243
285 284 283 282 281 280 278 278 277 275 272 269 266 264 263 262 262 262 263 265 267 268 268 268 267 266 264 262 261 259 256 253 253 253 253 254 255 256 257 256 255 251 247 244 241 239 237 237 238 239 239 239 239 239 239 238 237 238 240 242 243 244 246 246 245 244 244 242 240 238 235 233 231 233 238 240 240 241 243 245 247 246 243 242 242
287 286 285 283 282 281 279 278 278 277 275 273 269 266 264 262 262 262 263 265 267 267 267 267 267 266 264 262 262 261 260 259 258 259 260 262 262 262 261 260 257 254 249 245 242 240 238 235 235 236 239 240 240 239 240 241 241 242 243 244 244 246 249 250 248 245 243 240 240 238 235 231 229 230 234 237 238 240 241 242 244 245 246 244 242
284 284 283 282 280 279 278 276 275 275 275 274 272 270 269 268 266 265 264 264 264 265 266 266 266 267 265 262 260 258 258 261 263 264 265 267 268 268 267 265 262 258 253 249 245 243 240 237 236 235 236 237 237 238 240 242 244 245 246 246 246 248 252 253 250 246 244 241 239 239 236 230 227 228 231 233 235 238 241 242 243 244 246 247 245
279 279 278 278 278 278 278 279 278 277 275 274 274 273 272 272 272 271 270 268 267 265 265 265 265 265 264 263 260 258 259 262 265 267 269 271 272 272 270 269 267 263 259 254 250 247 244 242 239 238 237 237 237 238 240 242 244 245 247 248 250 251 251 251 249 246 245 243 240 239 238 232 227 227 229 231 231 233 236 240 242 242 244 247 247
279 280 279 279 278 278 279 281 281 280 279 278 277 277 276 276 275 274 273 273 272 271 270 269 267 264 264 263 262 261 263 264 265 267 269 272 273 274 272 270 268 266 263 259 255 252 249 247 244 242 240 239 239 240 241 241 241 242 245 248 251 252 250 249 247 245 244 243 241 240 239 236 230 227 228 230 230 230 232 236 240 242 243 246 249
282 282 282 281 280 279 280 282 282 280 279 278 279 279 278 276 275 274 273 273 273 274 274 273 272 270 268 266 264 263 263 264 265 267 268 270 271 273 272 270 268 266 265 263 259 256 253 251 249 247 245 243 242 242 242 242 242 243 243 245 247 249 249 249 247 245 243 242 241 240 240 238 234 229 229 231 231 231 231 233 236 239 242 245 248
281 281 281 280 279 279 280 281 281 280 278 278 280 280 277 275 275 273 272 270 269 270 270 271 272 273 272 270 267 265 264 264 265 266 268 269 270 270 270 269 267 266 264 263 262 260 258 255 252 251 249 248 246 244 243 244 245 246 246 245 245 246 248 248 247 244 242 241 240 239 238 239 237 234 232 233 234 234 233 233 234 235 238 241 244
282 282 281 280 279 279 280 281 281 280 280 279 280 280 277 276 276 274 273 272 270 270 270 270 270 270 270 271 270 269 268 267 267 268 269 269 270 269 268 266 266 265 263 262 260 260 259 258 256 253 252 251 249 247 245 244 246 248 248 248 247 246 247 247 246 243 241 241 241 239 238 237 238 237 235 235 236 237 236 236 235 236 237 239 242
281 281 281 281 281 281 282 282 282 282 281 280 280 279 278 276 276 276 275 274 273 273 273 272 270 269 269 270 270 271 271 270 270 271 271 271 270 269 267 265 265 264 264 262 259 257 256 256 256 255 254 252 251 250 248 246 245 246 248 249 249 249 249 249 248 245 242 241 241 241 240 238 238 238 238 237 237 239 239 239 239 239 239 240 241
279 279 280 281 281 282 282 282 283 282 281 280 279 279 277 276 275 275 275 273 273 273 273 272 270 269 268 268 268 268 269 270 271 272 273 272 271 269 267 265 264 263 263 262 260 257 254 253 253 253 253 253 252 252 251 250 248 246 246 247 248 249 250 250 250 249 246 243 242 241 241 241 240 240 239 239 238 239 240 241 242 242 242 242 243
279 280 282 282 282 281 281 281 281 280 279 279 278 277 276 275 274 273 272 272 271 272 272 271 270 269 267 266 265 265 266 268 270 272 272 271 270 269 267 265 263 261 260 260 258 257 255 253 252 251 251 251 251 251 251 251 251 249 248 247 248 248 249 250 251 251 250 248 245 243 242 242 243 243 242 242 241 241 240 241 242 243 244 244 244
278 281 282 282 282 282 282 281 281 280 279 279 278 277 275 273 272 271 270 269 270 270 270 269 269 269 268 266 264 264 266 267 269 270 270 269 268 267 266 265 263 261 260 259 257 255 254 253 253 252 251 250 250 250 250 251 251 251 250 249 249 249 249 250 250 251 251 251 250 247 245 244 244 244 245 245 245 244 243 242 242 242 243 244 244
278 280 281 282 282 282 282 283 283 282 281 280 278 276 274 272 271 270 270 270 270 269 269 269 270 270 269 267 266 266 267 268 268 269 269 268 267 265 264 263 262 261 260 259 257 255 254 253 253 253 252 251 250 250 249 249 250 250 251 250 250 250 249 249 250 250 251 251 252 251 250 248 246 246 246 247 247 246 246 245 244 244 244 243 244
278 279 280 281 281 282 282 283 283 283 282 280 278 276 275 273 271 271 270 271 271 271 271 271 271 270 269 268 268 268 268 268 268 268 268 267 266 264 262 260 259 259 258 257 255 255 255 255 255 254 253 252 251 251 250 250 249 249 250 250 250 250 250 250 249 250 250 250 251 252 252 252 250 249 248 248 248 247 247 247 246 245 245 245 245
278 279 279 280 281 281 282 283 283 283 282 280 279 277 275 273 272 271 272 272 272 273 273 272 271 270 268 268 267 267 267 268 268 269 268 267 264 260 256 254 254 254 254 253 253 254 255 256 256 256 256 255 253 252 251 250 250 250 250 250 250 250 250 250 250 250 250 250 250 250 251 251 252 252 251 249 249 248 248 248 247 247 246 246 246
278 279 279 280 280 281 281 282 282 282 281 280 278 277 275 273 272 272 272 272 273 272 272 271 270 269 268 267 267 266 266 267 268 268 268 266 261 254 248 248 250 252 252 252 253 254 255 257 258 258 258 257 256 255 253 252 252 251 251 250 250 250 249 249 250 250 249 249 249 250 250 250 251 251 252 251 251 250 249 249 249 248 248 247 247
278 278 279 280 281 281 281 281 281 280 279 278 277 276 274 273 272 272 272 272 272 272 271 270 270 269 268 267 266 266 266 267 268 267 264 260 252 245 243 246 250 252 252 253 254 256 257 258 259 260 260 260 259 257 256 255 254 253 252 251 250 250 250 250 250 250 250 250 249 249 249 250 250 251 251 252 252 252 251 251 251 250 249 249 248
276 277 279 280 281 281 281 281 280 279 277 276 275 274 274 273 272 271 271 270 270 270 270 270 270 269 268 268 267 267 266 267 267 264 260 255 249 247 251 255 256 256 256 256 256 258 259 259 259 260 260 261 261 260 258 257 256 255 254 253 252 251 251 250 250 250 251 251 251 251 251 251 251 251 251 251 252 253 253 252 253 253 252 252 251
276 278 280 281 281 281 280 280 278 277 275 274 273 272 272 272 272 272 272 271 269 268 268 269 269 269 269 269 270 270 269 267 266 262 258 257 256 258 261 263 263 261 260 259 259 259 259 259 259 259 259 260 260 260 259 258 258 257 256 255 254 253 252 252 251 251 251 251 251 252 252 253 253 252 252 252 252 252 253 253 253 254 254 254 254
276 278 279 280 280 280 279 277 276 275 274 273 271 271 270 270 270 271 272 272 271 269 269 269 269 270 270 271 272 272 272 269 266 263 260 258 259 260 262 264 265 264 262 261 262 262 262 261 261 260 259 259 259 259 259 258 258 258 257 256 256 255 254 254 253 252 251 251 251 251 251 252 253 254 254 254 254 253 253 252 252 253 254 254 255
276 277 277 278 278 277 275 273 271 271 271 271 270 270 270 269 269 269 269 270 270 271 271 271 271 271 271 271 272 273 273 272 270 267 264 262 261 261 262 263 265 265 265 264 264 265 266 266 266 264 262 259 258 258 258 258 258 258 258 257 257 256 256 256 255 254 253 253 253 252 252 251 252 253 253 253 254 255 255 254 253 252 253 253 254
271 271 271 272 271 270 270 270 269 268 268 268 267 267 268 269 269 269 269 268 269 270 271 272 272 272 271 271 270 271 272 273 273 272 271 269 268 267 267 267 267 268 269 271 271 271 272 272 272 270 267 263 260 258 258 257 257 258 258 258 258 258 257 257 257 256 255 255 254 254 254 254 253 253 254 253 252 253 254 254 254 254 253 253 253
269 267 267 266 265 265 267 268 269 268 266 265 265 266 266 267 268 268 268 268 268 268 269 269 270 271 271 271 270 270 270 271 272 273 273 274 274 273 273 273 273 274 275 276 277 277 276 276 275 274 271 268 264 261 260 259 258 257 257 258 258 258 259 258 258 257 256 256 255 255 255 256 255 254 254 254 253 253 253 253 253 253 253 253 254
269 268 267 266 265 265 265 265 266 266 265 264 265 266 266 265 265 265 266 268 268 268 267 267 267 268 269 270 271 271 270 270 270 270 271 273 273 274 274 275 275 276 276 277 277 277 277 277 276 275 274 271 268 266 264 263 261 259 257 257 257 257 258 259 259 258 258 257 257 256 256 256 256 255 255 255 254 253 253 253 252 252 252 252 252
268 267 266 265 264 264 263 263 262 262 262 263 263 263 264 265 265 266 267 268 268 268 267 267 267 267 267 268 269 269 270 269 269 270 271 271 272 273 273 274 274 275 276 277 277 277 277 276 275 274 273 272 271 269 267 266 264 262 259 258 257 257 257 258 259 259 259 258 258 258 257 257 257 256 256 256 256 255 254 253 252 252 252 252 251
268 267 265 264 263 262 261 262 262 262 262 262 262 263 264 265 266 267 268 269 269 268 268 267 267 267 267 267 267 267 267 268 268 269 270 271 271 272 273 274 275 275 276 277 277 277 277 276 274 273 271 271 270 270 270 268 267 265 262 260 259 258 258 258 259 260 260 260 259 260 260 260 259 257 257 256 257 256 256 255 254 252 252 252 252
267 266 265 263 262 261 261 261 262 263 263 264 264 265 266 266 267 268 268 268 268 269 268 268 268 267 267 267 266 266 266 267 267 268 269 270 271 272 273 274 274 275 275 276 276 275 275 274 273 272 271 271 271 270 270 270 269 268 266 264 263 262 261 261 261 261 261 261 260 260 260 261 260 260 258 257 257 257 257 256 256 255 253 252 251
265 265 264 264 262 261 261 261 262 263 264 265 265 266 267 267 268 268 268 268 268 269 269 269 269 268 268 267 267 267 267 268 268 269 270 270 271 272 273 273 274 274 274 274 273 273 272 271 271 271 271 271 271 271 271 271 271 270 270 269 268 268 267 267 266 265 265 265 263 262 261 261 261 261 260 258 258 258 258 257 257 256 255 254 253
Height
10715 10714 10711 10709 10709 10710 10709 10709 10710 10711 10711 10711 10709 10707 10705 10705 10704 10704 10704 10704 10704 10704 10704 10705 10706 10707 10708 10709 10710 10710 10710 10710 10710 10710 10711 10711 10711 10710 10710 10710 10710 10711 10712 10713 10713 10714 10716 10717 10718 10720 10721 10722 10723 10724 10725 10726 10727 10727 10728 10729 10730 10730 10732 10733 10734 10735 10737 10739 10741 10742 10743 10744 10745 10746 10748 10749 10750 10751 10752 10752 10753 10754 10754 10755 10756
10711 10708 10704 10704 10706 10708 10707 10706 10707 10707 10706 10706 10705 10703 10703 10702 10701 10701 10701 10701 10701 10700 10701 10701 10702 10702 10703 10705 10706 10705 10705 10705 10705 10705 10705 10706 10706 10706 10705 10705 10706 10707 10708 10709 10709 10711 10712 10713 10714 10716 10718 10719 10720 10721 10722 10722 10723 10724 10725 10726 10726 10727 10728 10729 10731 10732 10733 10735 10737 10738 10740 10741 10742 10743 10745 10746 10747 10748 10749 10749 10750 10751 10752 10752 10753
10704 10701 10698 10700 10703 10704 10705 10704 10703 10702 10702 10702 10701 10701 10701 10700 10699 10699 10699 10698 10698 10697 10697 10698 10698 10698 10699 10700 10701 10701 10700 10700 10699 10699 10699 10699 10700 10701 10700 10701 10702 10702 10703 10705 10706 10707 10709 10710 10711 10713 10714 10716 10717 10718 10718 10719 10720 10721 10721 10722 10723 10724 10725 10726 10727 10729 10730 10732 10733 10735 10736 10737 10739 10740 10741 10743 10744 10745 10746 10746 10747 10748 10749 10750 10750
10696 10693 10693 10696 10699 10701 10703 10702 10700 10698 10698 10699 10700 10700 10699 10699 10699 10698 10698 10697 10695 10694 10694 10694 10694 10694 10695 10695 10696 10696 10695 10694 10693 10693 10694 10694 10694 10695 10696 10696 10697 10698 10699 10701 10703 10704 10706 10707 10709 10710 10711 10712 10713 10714 10715 10716 10717 10717 10718 10719 10720 10720 10721 10722 10724 10725 10726 10728 10730 10731 10733 10734 10735 10737 10738 10740 10741 10741 10742 10743 10744 10745 10746 10747 10748
10688 10685 10688 10691 10694 10698 10700 10700 10698 10696 10696 10697 10699 10700 10699 10699 10698 10698 10697 10695 10692 10691 10691 10690 10690 10691 10691 10691 10691 10690 10689 10689 10688 10688 10688 10688 10688 10690 10692 10694 10694 10694 10695 10697 10699 10701 10703 10704 10706 10707 10708 10708 10710 10711 10712 10712 10713 10714 10715 10716 10716 10717 10718 10719 10720 10721 10722 10724 10726 10728 10729 10731 10732 10733 10735 10736 10738 10738 10739 10740 10741 10742 10743 10744 10745
10681 10680 10683 10686 10689 10692 10694 10695 10694 10693 10694 10696 10698 10699 10700 10700 10699 10697 10695 10692 10690 10688 10687 10687 10687 10687 10687 10687 10686 10686 10685 10684 10684 10684 10684 10683 10684 10685 10688 10691 10692 10691 10692 10694 10696 10698 10700 10701 10702 10703 10704 10705 10706 10707 10708 10709 10709 10710 10711 10712 10713 10714 10714 10715 10716 10717 10718 10720 10722 10724 10725 10727 10728 10729 10731 10732 10734 10735 10736 10737 10738 10739 10740 10741 10742
10676 10676 10679 10682 10684 10685 10687 10689 10690 10690 10691 10694 10696 10698 10700 10699 10698 10696 10692 10689 10688 10686 10684 10684 10684 10684 10684 10683 10682 10681 10681 10680 10680 10680 10680 10680 10680 10681 10683 10686 10689 10690 10691 10692 10694 10695 10697 10698 10699 10700 10700 10701 10702 10703 10704 10705 10705 10707 10708 10708 10709 10710 10711 10711 10712 10713 10714 10716 10717 10719 10721 10723 10724 10726 10727 10728 10730 10731 10733 10734 10735 10736 10737 10738 10739
10673 10673 10675 10678 10679 10680 10682 10685 10686 10686 10688 10691 10693 10695 10696 10696 10695 10692 10689 10687 10685 10683 10681 10681 10680 10680 10680 10679 10678 10678 10677 10677 10676 10676 10676 10676 10676 10678 10679 10682 10685 10687 10689 10691 10692 10693 10694 10695 10695 10696 10696 10696 10697 10699 10700 10701 10702 10703 10704 10705 10706 10706 10707 10707 10708 10709 10710 10711 10713 10715 10717 10719 10721 10722 10723 10724 10726 10727 10729 10730 10732 10733 10734 10735 10735
10670 10671 10672 10674 10675 10677 10678 10680 10682 10683 10685 10687 10689 10690 10691 10691 10689 10687 10686 10684 10681 10680 10678 10677 10676 10675 10675 10675 10675 10675 10675 10674 10674 10673 10673 10674 10674 10676 10677 10678 10681 10684 10687 10690 10691 10691 10691 10692 10692 10692 10692 10692 10693 10695 10696 10696 10697 10698 10700 10701 10702 10703 10703 10704 10704 10705 10706 10707 10709 10711 10713 10714 10716 10718 10719 10721 10722 10723 10725 10727 10729 10730 10730 10731 10732
10668 10668 10669 10670 10671 10673 10674 10675 10677 10679 10681 10683 10684 10685 10685 10684 10683 10682 10681 10679 10677 10676 10674 10673 10672 10671 10671 10672 10672 10672 10672 10672 10672 10671 10671 10671 10672 10674 10675 10675 10677 10681 10684 10687 10689 10690 10690 10689 10689 10689 10689 10689 10689 10690 10691 10691 10692 10694 10695 10697 10698 10699 10699 10700 10700 10701 10702 10703 10705 10707 10709 10711 10713 10715 10716 10717 10719 10721 10722 10724 10725 10726 10727 10728 10728
10664 10665 10666 10667 10668 10669 10670 10671 10672 10674 10675 10677 10679 10679 10679 10678 10677 10677 10675 10674 10673 10671 10670 10669 10668 10668 10668 10667 10668 10669 10669 10669 10669 10669 10669 10669 10669 10671 10672 10672 10674 10677 10680 10683 10686 10690 10690 10688 10686 10686 10686 10684 10684 10685 10686 10687 10688 10690 10691 10693 10694 10694 10695 10696 10696 10697 10698 10700 10701 10703 10705 10707 10709 10710 10712 10713 10715 10717 10718 10720 10721 10722 10723 10724 10724
10660 10662 10663 10663 10664 10664 10665 10666 10667 10669 10670 10671 10673 10673 10672 10672 10672 10671 10670 10669 10668 10667 10666 10665 10665 10665 10664 10664 10665 10666 10666 10667 10667 10667 10667 10667 10666 10666 10668 10669 10670 10673 10676 10680 10683 10686 10688 10686 10683 10683 10681 10679 10679 10681 10682 10684 10685 10686 10688 10689 10689 10689 10690 10691 10693 10694 10695 10696 10697 10699 10701 10703 10704 10706 10707 10709 10711 10713 10714 10716 10717 10718 10719 10720 10720
10655 10657 10659 10659 10660 10660 10660 10661 10662 10664 10665 10666 10667 10667 10667 10667 10667 10666 10665 10664 10663 10662 10661 10661 10661 10661 10661 10661 10662 10663 10663 10663 10664 10664 10664 10664 10663 10663 10664 10665 10667 10670 10673 10675 10677 10679 10681 10680 10678 10677 10676 10676 10677 10678 10679 10680 10680 10681 10683 10685 10685 10685 10686 10688 10689 10690 10691 10692 10693 10695 10697 10698 10700 10702 10704 10706 10708 10709 10711 10713 10714 10715 10715 10716 10716
10651 10653 10655 10655 10655 10656 10656 10657 10658 10660 10660 10661 10661 10661 10662 10662 10662 10661 10660 10659 10658 10657 10657 10657 10657 10658 10658 10658 10659 10659 10660 10660 10660 10660 10660 10660 10660 10660 10661 10662 10664 10666 10669 10670 10671 10673 10674 10673 10672 10672 10671 10673 10674 10675 10676 10676 10676 10677 10678 10680 10681 10682 10682 10684 10686 10687 10687 10688 10689 10691 10692 10694 10696 10698 10700 10702 10704 10706 10708 10709 10710 10711 10711 10711 10712
10647 10649 10650 10651 10651 10652 10652 10653 10654 10655 10656 10656 10656 10656 10656 10657 10657 10656 10655 10655 10654 10654 10654 10654 10655 10655 10655 10656 10656 10657 10658 10657 10656 10655 10656 10656 10657 10657 10657 10659 10660 10662 10664 10665 10666 10668 10668 10668 10667 10667 10668 10669 10671 10672 10673 10672 10672 10674 10675 10675 10676 10677 10677 10679 10681 10682 10683 10684 10685 10686 10687 10690 10692 10694 10696 10698 10700 10702 10703 10705 10705 10705 10706 10708 10710
10643 10645 10646 10647 10648 10648 10648 10649 10649 10650 10651 10651 10651 10651 10651 10651 10651 10651 10650 10650 10650 10650 10650 10651 10652 10653 10653 10653 10654 10655 10656 10656 10654 10651 10650 10651 10653 10653 10653 10654 10655 10657 10658 10659 10661 10662 10663 10663 10663 10664 10665 10666 10667 10669 10669 10668 10669 10670 10671 10671 10671 10672 10673 10674 10676 10677 10678 10680 10681 10682 10683 10685 10687 10689 10691 10693 10695 10697 10698 10700 10700 10701 10703 10705 10706
10640 10641 10642 10643 10643 10644 10644 10644 10645 10645 10646 10646 10646 10646 10645 10645 10646 10646 10646 10645 10645 10646 10646 10647 10648 10649 10649 10649 10649 10651 10652 10653 10650 10647 10645 10646 10648 10648 10649 10650 10651 10652 10653 10654 10656 10657 10658 10658 10658 10659 10660 10661 10663 10664 10665 10666 10665 10665 10666 10666 10667 10667 10668 10670 10671 10673 10675 10676 10677 10677 10678 10681 10683 10685 10687 10689 10690 10692 10693 10695 10696 10697 10700 10701 10702
10636 10637 10638 10638 10639 10639 10639 10639 10640 10640 10640 10640 10641 10641 10640 10640 10641 10641 10641 10641 10641 10641 10642 10642 10643 10644 10645 10644 10645 10647 10648 10648 10646 10643 10643 10643 10643 10643 10644 10645 10646 10647 10648 10650 10651 10653 10654 10654 10654 10656 10657 10659 10660 10661 10663 10664 10662 10661 10662 10662 10662 10662 10663 10665 10666 10668 10670 10671 10672 10673 10674 10676 10679 10681 10683 10684 10686 10687 10688 10690 10692 10694 10695 10697 10697
10632 10632 10633 10634 10634 10635 10634 10634 10634 10634 10635 10635 10635 10635 10635 10635 10635 10636 10637 10637 10637 10637 10637 10638 10638 10639 10639 10639 10640 10641 10642 10643 10641 10640 10641 10640 10638 10638 10639 10640 10641 10642 10644 10646 10647 10648 10651 10651 10652 10654 10655 10657 10658 10659 10661 10661 10658 10656 10657 10657 10657 10658 10659 10660 10662 10663 10664 10666 10667 10669 10671 10673 10676 10678 10678 10679 10680 10682 10684 10686 10688 10690 10691 10692 10693
10627 10628 10628 10629 10629 10630 10630 10629 10629 10629 10629 10629 10630 10630 10630 10631 10631 10631 10632 10632 10633 10633 10633 10633 10634 10634 10634 10634 10635 10635 10636 10637 10636 10637 10638 10635 10633 10633 10634 10635 10636 10637 10638 10641 10642 10644 10646 10646 10646 10647 10649 10651 10653 10654 10655 10654 10652 10651 10651 10652 10653 10653 10654 10655 10657 10658 10659 10661 10662 10665 10667 10669 10673 10673 10671 10672 10676 10679 10682 10683 10685 10686 10686 10687 10688
10622 10623 10623 10624 10624 10625 10625 10625 10624 10624 10624 10624 10624 10625 10625 10626 10626 10626 10627 10628 10628 10629 10629 10629 10629 10629 10629 10629 10629 10630 10630 10631 10631 10632 10632 10630 10628 10629 10629 10629 10630 10631 10633 10635 10637 10638 10639 10640 10640 10641 10643 10644 10645 10645 10645 10645 10645 10645 10645 10647 10648 10649 10650 10651 10652 10653 10655 10656 10657 10660 10661 10664 10666 10666 10666 10669 10673 10676 10678 10680 10681 10681 10682 10683 10682
10618 10618 10619 10619 10619 10620 10620 10620 10620 10620 10620 10620 10620 10620 10620 10621 10622 10622 10623 10623 10624 10625 10625 10625 10625 10624 10624 10625 10625 10625 10625 10625 10625 10626 10626 10625 10624 10624 10624 10624 10625 10626 10627 10629 10631 10632 10633 10634 10635 10636 10638 10638 10638 10638 10638 10638 10639 10640 10641 10642 10643 10644 10645 10647 10647 10648 10650 10651 10653 10654 10656 10658 10660 10661 10663 10666 10669 10672 10673 10674 10675 10676 10677 10678 10678
10614 10614 10614 10614 10615 10615 10615 10616 10616 10616 10615 10615 10615 10616 10616 10617 10617 10618 10619 10619 10620 10620 10621 10621 10621 10621 10620 10620 10620 10620 10620 10620 10620 10620 10620 10620 10620 10620 10619 10619 10619 10620 10622 10623 10624 10626 10628 10628 10629 10631 10632 10633 10633 10633 10633 10634 10635 10636 10636 10637 10638 10639 10641 10642 10643 10644 10645 10647 10648 10649 10651 10653 10656 10657 10659 10661 10665 10668 10668 10668 10669 10670 10672 10673 10674
10610 10610 10610 10610 10611 10611 10611 10612 10612 10612 10612 10612 10612 10612 10612 10613 10613 10614 10614 10615 10615 10616 10617 10617 10617 10617 10617 10617 10617 10616 10616 10616 10616 10615 10615 10615 10615 10615 10615 10615 10615 10615 10616 10617 10618 10619 10621 10622 10624 10625 10626 10627 10628 10628 10628 10629 10630 10632 10632 10633 10634 10635 10636 10637 10638 10639 10640 10642 10643 10644 10646 10648 10650 10653 10654 10656 10659 10661 10662 10662 10662 10665 10667 10668 10669
10606 10607 10607 10607 10607 10607 10607 10608 10608 10609 10609 10609 10608 10608 10609 10609 10609 10609 10610 10610 10611 10611 10612 10613 10613 10613 10613 10613 10613 10613 10612 10612 10612 10611 10611 10611 10611 10611 10611 10610 10611 10611 10611 10612 10612 10613 10614 10615 10617 10618 10619 10620 10621 10622 10623 10624 10625 10627 10628 10629 10630 10631 10632 10633 10634 10634 10635 10637 10638 10640 10641 10643 10645 10647 10649 10651 10653 10654 10655 10655 10657 10660 10661 10662 10664
10603 10603 10603 10603 10603 10603 10603 10604 10604 10605 10605 10605 10605 10605 10605 10605 10605 10605 10606 10606 10606 10607 10607 10608 10609 10609 10609 10609 10609 10609 10608 10608 10608 10607 10607 10607 10607 10607 10607 10607 10607 10607 10607 10607 10607 10607 10608 10609 10610 10611 10613 10614 10615 10616 10617 10618 10620 10621 10622 10624 10625 10627 10628 10629 10629 10629 10630 10632 10634 10635 10636 10638 10640 10642 10644 10645 10647 10649 10650 10651 10653 10655 10656 10656 10658
10599 10599 10599 10599 10599 10599 10600 10600 10600 10600 10601 10601 10601 10602 10602 10602 10602 10602 10602 10602 10602 10602 10603 10603 10604 10604 10605 10605 10605 10604 10604 10604 10603 10603 10603 10603 10603 10603 10603 10603 10602 10603 10603 10603 10603 10603 10603 10604 10604 10605 10606 10607 10609 10610 10611 10612 10613 10615 10616 10617 10619 10621 10623 10623 10624 10625 10626 10628 10629 10630 10632 10633 10635 10637 10638 10640 10641 10643 10644 10646 10647 10650 10650 10650 10652
10595 10595 10595 10595 10596 10596 10596 10596 10596 10596 10596 10597 10597 10597 10597 10597 10597 10597 10597 10597 10598 10598 10598 10598 10599 10599 10600 10600 10600 10600 10599 10599 10599 10599 10599 10599 10599 10599 10598 10598 10598 10598 10598 10598 10599 10599 10599 10599 10599 10600 10600 10601 10602 10604 10605 10606 10607 10608 10610 10611 10612 10614 10616 10617 10619 10620 10621 10622 10624 10625 10627 10628 10630 10632 10633 10635 10636 10637 10639 10640 10642 10644 10645 10646 10646
10590 10590 10591 10591 10591 10591 10591 10591 10591 10591 10591 10592 10592 10592 10592 10592 10592 10592 10592 10593 10593 10593 10593 10594 10594 10594 10594 10594 10595 10595 10594 10594 10594 10594 10594 10594 10594 10594 10594 10594 10594 10593 10593 10593 10594 10594 10594 10594 10594 10594 10595 10595 10596 10597 10598 10599 10601 10602 10603 10605 10606 10607 10609 10611 10613 10614 10615 10617 10619 10620 10621 10623 10625 10627 10628 10630 10631 10631 10633 10635 10636 10638 10639 10640 10641
10584 10585 10586 10586 10586 10586 10586 10586 10586 10586 10586 10586 10586 10586 10586 10587 10587 10587 10587 10588 10588 10588 10588 10588 10589 10589 10589 10589 10589 10589 10589 10589 10589 10589 10589 10589 10589 10590 10590 10589 10589 10589 10588 10588 10588 10589 10589 10589 10589 10589 10590 10590 10591 10592 10593 10594 10595 10596 10597 10599 10600 10601 10603 10604 10606 10608 10610 10611 10613 10614 10616 10618 10619 10621 10623 10624 10625 10626 10627 10629 10630 10631 10632 10633 10634
10578 10579 10580 10580 10580 10580 10581 10581 10581 10581 10581 10581 10581 10581 10581 10581 10582 10582 10582 10582 10582 10582 10582 10582 10583 10583 10583 10582 10582 10582 10582 10583 10583 10583 10583 10583 10584 10584 10584 10584 10584 10584 10584 10583 10583 10584 10584 10584 10584 10584 10584 10585 10585 10586 10587 10588 10589 10590 10592 10593 10594 10596 10597 10598 10600 10602 10603 10605 10607 10608 10610 10611 10613 10614 10616 10618 10619 10620 10621 10623 10624 10625 10625 10627 10628
10573 10573 10574 10574 10573 10573 10574 10574 10575 10575 10575 10575 10575 10576 10576 10576 10576 10576 10576 10576 10576 10576 10576 10576 10576 10576 10577 10577 10576 10576 10576 10576 10577 10577 10577 10577 10577 10578 10578 10578 10578 10578 10578 10578 10578 10578 10579 10579 10579 10579 10579 10579 10580 10580 10581 10582 10583 10585 10586 10587 10588 10590 10591 10592 10594 10595 10597 10599 10600 10602 10603 10605 10606 10608 10609 10611 10612 10613 10615 10616 10617 10618 10619 10621 10622
10567 10567 10567 10568 10567 10567 10567 10567 10568 10568 10568 10569 10569 10570 10570 10570 10571 10571 10571 10571 10571 10570 10570 10570 10570 10570 10570 10571 10571 10571 10571 10571 10571 10571 10571 10571 10571 10571 10571 10571 10571 10572 10572 10573 10573 10573 10573 10573 10573 10573 10574 10574 10574 10574 10575 10576 10577 10579 10580 10581 10583 10584 10585 10586 10587 10588 10590 10592 10593 10595 10596 10598 10599 10601 10602 10604 10605 10606 10607 10609 10610 10611 10613 10614 10616
10560 10561 10561 10560 10560 10560 10560 10561 10561 10561 10561 10562 10562 10563 10563 10564 10564 10564 10564 10564 10564 10564 10564 10564 10564 10564 10564 10564 10565 10565 10565 10565 10565 10565 10564 10564 10564 10564 10564 10564 10565 10565 10565 10566 10567 10567 10567 10567 10567 10567 10567 10568 10568 10569 10569 10570 10571 10572 10573 10575 10576 10577 10578 10580 10581 10582 10583 10585 10586 10588 10589 10591 10592 10594 10595 10597 10598 10599 10600 10601 10602 10604 10605 10607 10609
10555 10555 10555 10554 10553 10552 10552 10553 10554 10554 10554 10555 10555 10556 10556 10556 10556 10557 10557 10557 10557 10557 10557 10557 10557 10557 10558 10558 10558 10559 10559 10559 10558 10558 10558 10557 10557 10556 10557 10557 10558 10558 10559 10559 10560 10560 10560 10561 10561 10561 10561 10561 10562 10562 10563 10564 10565 10565 10566 10567 10569 10570 10571 10573 10574 10575 10576 10578 10579 10581 10582 10584 10585 10587 10588 10590 10591 10592 10594 10594 10595 10596 10597 10599 10600
10549 10549 10549 10548 10547 10546 10545 10545 10546 10546 10547 10547 10548 10548 10548 10549 10549 10549 10549 10550 10550 10550 10549 10550 10550 10550 10550 10551 10551 10551 10551 10551 10551 10551 10550 10550 10550 10549 10550 10550 10551 10551 10552 10552 10553 10553 10554 10554 10554 10554 10554 10555 10555 10556 10556 10557 10558 10559 10560 10561 10562 10562 10563 10565 10566 10567 10569 10570 10572 10573 10575 10576 10578 10579 10581 10582 10583 10585 10586 10587 10587 10588 10589 10591 10592
10541 10542 10542 10542 10542 10540 10539 10539 10538 10539 10539 10539 10540 10540 10541 10541 10541 10541 10542 10542 10542 10542 10542 10542 10542 10542 10543 10543 10544 10544 10544 10544 10543 10543 10543 10542 10542 10542 10542 10542 10543 10544 10544 10545 10546 10546 10547 10547 10547 10547 10547 10548 10548 10549 10549 10550 10551 10552 10553 10554 10555 10555 10556 10557 10558 10559 10561 10562 10564 10566 10567 10568 10569 10571 10572 10573 10575 10576 10578 10578 10579 10580 10581 10583 10584
10533 10534 10535 10535 10535 10534 10533 10532 10531 10531 10531 10530 10531 10533 10533 10534 10534 10534 10534 10535 10535 10534 10534 10534 10535 10535 10535 10536 10536 10536 10536 10536 10536 10536 10535 10534 10533 10533 10533 10535 10536 10537 10538 10538 10539 10540 10540 10540 10540 10540 10540 10540 10541 10541 10542 10543 10544 10544 10545 10546 10547 10548 10549 10549 10550 10551 10552 10554 10555 10557 10558 10559 10560 10561 10563 10564 10565 10567 10569 10569 10570 10571 10572 10574 10575
10525 10526 10526 10527 10527 10526 10526 10525 10524 10523 10523 10522 10523 10524 10525 10526 10526 10526 10527 10527 10527 10527 10527 10527 10527 10528 10528 10529 10529 10529 10529 10529 10529 10529 10527 10526 10525 10525 10526 10529 10530 10531 10532 10532 10533 10533 10533 10533 10533 10532 10533 10533 10533 10534 10534 10536 10537 10537 10538 10539 10539 10540 10540 10541 10543 10543 10544 10545 10547 10548 10549 10550 10552 10553 10554 10555 10556 10558 10559 10560 10561 10562 10563 10565 10566
10518 10517 10517 10518 10518 10518 10518 10518 10517 10516 10516 10515 10515 10516 10517 10517 10518 10519 10520 10520 10520 10519 10519 10520 10520 10521 10522 10522 10522 10522 10523 10523 10523 10522 10521 10519 10518 10518 10521 10524 10525 10525 10526 10526 10527 10526 10526 10526 10525 10525 10525 10525 10525 10526 10527 10528 10530 10530 10530 10531 10532 10532 10533 10534 10535 10536 10536 10537 10538 10539 10540 10541 10542 10543 10545 10546 10547 10548 10550 10552 10552 10553 10554 10556 10557
10510 10509 10509 10510 10511 10510 10509 10509 10510 10509 10509 10508 10508 10508 10508 10508 10509 10511 10512 10513 10513 10512 10513 10513 10513 10514 10515 10515 10515 10515 10516 10517 10517 10517 10516 10515 10515 10514 10516 10518 10518 10518 10518 10519 10519 10519 10519 10518 10518 10517 10517 10517 10517 10517 10519 10520 10521 10522 10522 10523 10524 10524 10525 10526 10528 10528 10528 10529 10531 10531 10532 10533 10533 10534 10536 10537 10537 10538 10541 10543 10543 10544 10545 10546 10547
10504 10503 10503 10502 10502 10502 10501 10500 10501 10501 10501 10501 10500 10500 10500 10500 10500 10502 10504 10505 10505 10506 10506 10506 10507 10507 10507 10507 10507 10508 10509 10510 10510 10510 10510 10511 10511 10510 10510 10511 10511 10511 10510 10511 10511 10511 10511 10511 10510 10509 10509 10509 10509 10509 10511 10512 10512 10513 10514 10514 10515 10516 10517 10517 10519 10520 10520 10520 10522 10523 10524 10525 10525 10526 10527 10528 10528 10528 10530 10533 10534 10534 10535 10537 10537
10499 10498 10497 10496 10494 10494 10493 10492 10491 10492 10492 10492 10492 10492 10493 10492 10493 10494 10495 10495 10496 10497 10498 10499 10500 10500 10500 10500 10500 10500 10501 10502 10503 10503 10504 10504 10504 10504 10503 10503 10503 10502 10502 10503 10503 10503 10502 10502 10502 10501 10501 10501 10501 10501 10503 10504 10504 10504 10505 10505 10506 10507 10508 10508 10510 10512 10512 10511 10513 10514 10515 10516 10517 10517 10518 10520 10520 10519 10520 10522 10524 10524 10525 10526 10527
10494 10493 10491 10490 10488 10486 10484 10483 10483 10484 10484 10483 10483 10484 10484 10485 10485 10486 10487 10487 10487 10488 10489 10490 10492 10492 10493 10493 10492 10492 10491 10492 10493 10494 10495 10496 10496 10496 10496 10495 10495 10494 10494 10494 10495 10495 10494 10493 10493 10493 10492 10492 10493 10494 10494 10495 10496 10496 10496 10496 10497 10498 10499 10499 10500 10502 10504 10503 10504 10505 10505 10506 10508 10508 10508 10509 10511 10510 10510 10512 10513 10514 10515 10515 10516
10487 10486 10485 10483 10480 10477 10475 10474 10475 10478 10478 10476 10476 10476 10476 10476 10477 10478 10479 10480 10480 10480 10480 10481 10482 10483 10484 10484 10484 10484 10484 10483 10483 10484 10485 10486 10486 10487 10487 10486 10486 10486 10485 10485 10485 10485 10485 10484 10484 10484 10483 10483 10485 10486 10486 10487 10488 10488 10487 10487 10488 10489 10489 10489 10490 10491 10493 10494 10495 10495 10495 10495 10498 10499 10497 10498 10500 10500 10499 10501 10503 10504 10505 10506 10505
10475 10476 10477 10475 10471 10469 10468 10467 10467 10469 10469 10468 10467 10467 10468 10468 10468 10469 10470 10471 10472 10473 10473 10473 10473 10473 10473 10474 10475 10476 10477 10476 10475 10474 10474 10475 10475 10476 10476 10476 10476 10476 10476 10476 10476 10476 10476 10475 10475 10475 10475 10474 10476 10477 10477 10477 10478 10479 10479 10479 10479 10480 10480 10479 10480 10480 10481 10483 10483 10484 10484 10484 10485 10488 10488 10486 10488 10489 10488 10489 10491 10492 10495 10495 10495
10463 10465 10466 10465 10463 10462 10461 10458 10458 10459 10458 10458 10458 10458 10458 10459 10459 10460 10460 10461 10462 10463 10464 10464 10464 10464 10464 10464 10464 10466 10467 10467 10467 10466 10465 10466 10466 10466 10466 10466 10466 10466 10467 10467 10467 10467 10467 10467 10466 10466 10466 10466 10466 10467 10468 10468 10468 10468 10469 10469 10469 10470 10470 10470 10470 10470 10470 10471 10472 10472 10473 10473 10472 10475 10477 10475 10475 10477 10477 10477 10478 10480 10482 10483 10483
10452 10453 10455 10455 10454 10454 10451 10448 10448 10450 10449 10448 10449 10449 10448 10449 10450 10450 10451 10452 10453 10454 10454 10455 10455 10456 10456 10456 10456 10456 10457 10457 10457 10457 10456 10457 10457 10457 10457 10457 10457 10458 10458 10458 10458 10458 10458 10458 10457 10457 10457 10456 10457 10457 10457 10457 10458 10458 10459 10459 10460 10460 10461 10461 10460 10459 10459 10460 10461 10461 10462 10462 10461 10463 10465 10463 10463 10464 10465 10464 10465 10468 10469 10469 10470
10440 10441 10443 10444 10444 10444 10442 10439 10438 10439 10439 10439 10439 10440 10440 10440 10441 10441 10442 10443 10443 10444 10444 10445 10446 10446 10447 10447 10448 10448 10448 10448 10447 10447 10447 10448 10448 10448 10448 10449 10449 10449 10449 10449 10449 10449 10448 10448 10448 10448 10448 10447 10447 10447 10447 10447 10447 10448 10449 10449 10449 10450 10451 10451 10450 10450 10449 10449 10450 10451 10451 10450 10449 10451 10453 10452 10451 10451 10451 10450 10451 10454 10456 10456 10457
10430 10430 10431 10432 10433 10433 10432 10430 10428 10428 10428 10429 10429 10430 10431 10431 10431 10432 10432 10433 10433 10433 10434 10435 10435 10436 10437 10437 10438 10438 10438 10438 10438 10439 10439 10439 10439 10439 10440 10440 10440 10441 10440 10440 10440 10439 10439 10439 10439 10438 10438 10438 10438 10438 10438 10437 10437 10437 10438 10438 10439 10439 10440 10441 10440 10440 10439 10438 10439 10441 10441 10439 10438 10438 10440 10440 10439 10438 10437 10437 10437 10438 10440 10442 10443
10420 10420 10420 10420 10421 10421 10421 10420 10419 10418 10418 10419 10419 10420 10420 10421 10422 10422 10422 10423 10423 10424 10424 10425 10425 10426 10426 10427 10427 10427 10428 10429 10429 10430 10430 10430 10430 10430 10430 10431 10431 10431 10431 10431 10430 10430 10430 10430 10430 10429 10429 10429 10429 10429 10429 10428 10427 10427 10427 10428 10429 10429 10430 10430 10429 10429 10428 10427 10426 10428 10428 10426 10425 10425 10426 10427 10428 10426 10423 10422 10423 10423 10425 10427 10428